Tracking 18843 objects as of 21-November-2017
HD Live streaming from Space Station
objects crossing your sky now

FENGYUN 1C DEB

Track FENGYUN 1C DEB now!
10-day predictions


NORAD ID: 30465
Int'l Code: 1999-025AGC
Perigee: 829.0 km
Apogee: 863.4 km
Inclination: 99.0 °
Period: 101.7 minutes
Semi major axis: 7217 km
RCS: 0.029 m2 (small)
Launch date: May 10, 1999
Source: People's Republic of China (PRC)
Launch site: Taiyaun Space Center, China (TSC)

Note: This is SATELLITE DEBRIS
aabbcc
Your satellite tracking list
Your tracking list is empty




NASA's NSSDC Master Catalog

Two Line Element Set (TLE):
1 30465U 99025AGC 17324.74048858  .00000906  00000-0  48183-3 0  9996
2 30465  99.0260 345.6727 0023820 184.3843 230.9286 14.15960283556191
Source of the keplerian elements: AFSPC